Home > Weather > Gander > Past weeks

Flag for Canada Past Weather in Gander, Newfoundland and Labrador, Canada — Yesterday and Last 2 Weeks

Now
59 °F

Mostly cloudy.


Feels Like: 58 °F
Forecast: 57 / 74 °F
Wind: 8 mph from South

Location: Gander Int. Airport

Current Time: Jul 25, 2016 at 7:33:04 AM

Latest Report: Jul 25, 2016 at 6:30 AM


Visibility: 8 mi

Pressure: 29.88 "Hg

Humidity: 94%

Dew Point: 57 °F

Location of GanderLocation

Past Weather in Gander — Graph

°F

Gander Temperature Yesterday

Maximum temperature yesterday: 81 °F (at 2:30 PM)
Minimum temperature yesterday: 61 °F (at 10:30 PM)
Average temperature yesterday: 68 °F

High & Low Weather Summary for the Past Weeks

 TemperatureHumidityPressure
High82 °F (Jul 16, 2:30 PM)100% (Jul 10, 5:30 AM)30.16 "Hg (Jul 10, 5:30 AM)
Low43 °F (Jul 10, 5:30 AM)29% (Jul 21, 8:30 AM)29.59 "Hg (Jul 12, 5:19 AM)
Average61 °F80%29.86 "Hg
* Reported Jul 10 5:30 AM — Jul 25 5:30 AM, Gander, Weather by CustomWeather, © 2016

Note: Actual official high and low records may vary slightly from our data, if they occured in-between our weather recording intervals... More about our weather records

Advertising

Gander Weather History for the Previous 24 Hours

Scroll right to see more
 ConditionsComfort  
Time TempWeatherWind HumidityBarometerVisibility
5:30 AM
Mon, Jul 25
57 °FMostly cloudy.7 mph94%29.88 "Hg8 mi
4:30 AM57 °FPassing clouds.7 mph88%29.87 "Hg15 mi
3:30 AM57 °FPassing clouds.9 mph88%29.87 "Hg15 mi
2:30 AM57 °FMostly cloudy.12 mph88%29.86 "Hg15 mi
1:30 AM57 °FPartly cloudy.8 mph94%29.86 "Hg15 mi
12:30 AM59 °FFog.8 mph94%29.87 "Hg15 mi
11:30 PM
Sun, Jul 24
61 °FMostly cloudy.10 mph94%29.88 "Hg8 mi
10:30 PM61 °FFog.7 mph94%29.87 "Hg6 mi
9:30 PM64 °FFog.9 mph94%29.86 "Hg1 mi
8:30 PM64 °FSprinkles. Fog.6 mph88%29.85 "Hg4 mi
7:30 PM66 °FFog.6 mph88%29.82 "Hg8 mi
7:18 PM66 °FBroken clouds.3 mph88%29.82 "Hg8 mi
6:30 PM66 °FPartly sunny.7 mph94%29.82 "Hg15 mi
5:30 PM70 °FPartly sunny.6 mph88%29.80 "Hg15 mi
5:22 PM70 °FPartly sunny.6 mph88%29.80 "Hg15 mi
4:30 PM70 °FSprinkles. Fog.3 mph88%29.77 "Hg5 mi
4:19 PM70 °FSprinkles. Fog.5 mph88%29.78 "Hg10 mi
3:30 PM72 °FSprinkles. Fog.10 mph83%29.77 "Hg5 mi
3:17 PM72 °FRain showers. Mostly cloudy.16 mph78%29.76 "Hg3 mi
2:30 PM81 °FPartly sunny.8 mph51%29.73 "Hg20 mi
1:30 PM75 °FPartly sunny.6 mph61%29.74 "Hg20 mi
12:30 PM75 °FPartly sunny.10 mph61%29.75 "Hg20 mi
11:30 AM72 °FPartly sunny.9 mph69%29.76 "Hg20 mi
10:30 AM73 °FBroken clouds.10 mph69%29.75 "Hg20 mi
9:30 AM68 °FBroken clouds.10 mph78%29.75 "Hg20 mi
8:30 AM64 °FPartly sunny.7 mph88%29.76 "Hg20 mi
7:30 AM64 °FSprinkles. Low clouds.7 mph88%29.75 "Hg15 mi
Weather by CustomWeather, © 2016

See weather overviewHow to use our weather pages